Lid_Strength_Index
3 4 5 6 12 15 17 14 12 10 10 8 7 7 7 7 8 11 2 1 1 1 -0 -0 -0 -0 -1 -1 -1 -1 -1 -1 -1 -1 -1 -1 -1 -1 -1 -1 -1 -1 -1 -1 -1 -1 -1 -1 -1
5 4 7 10 15 18 16 13 11 10 9 7 6 7 7 8 5 5 4 1 0 0 -0 -0 -0 -0 -1 -1 -1 -1 -1 -1 -1 -1 -1 -1 -1 -1 -1 -1 -1 -1 -1 -1 -1 -1 -1 -1 -1
5 5 10 12 16 17 16 12 11 9 8 7 8 7 6 7 4 4 2 1 0 0 -0 -0 -0 -0 -1 -1 -0 -0 -0 -1 -1 -1 -1 -1 -1 -1 -1 -1 -1 -1 -2 -1 -1 -1 -1 -1 -1
8 6 8 14 15 14 13 11 10 9 8 7 8 8 6 3 4 2 1 0 1 0 -0 0 0 -0 -0 -1 -1 -0 -0 -0 -0 -1 -1 -1 -1 -1 -1 -1 -1 -1 -2 -1 -1 -1 -1 -1 -1
7 9 12 16 15 13 11 10 9 9 9 7 7 9 6 3 2 1 1 1 1 1 0 -0 0 -0 -0 -1 -1 -0 -0 -0 -0 -0 -1 -1 -1 -1 -1 -1 -1 -1 -1 -1 -1 -1 -1 -1 -1
9 10 16 16 13 11 11 9 9 8 8 7 7 6 6 3 2 2 1 1 0 1 0 -0 -0 -0 -0 -0 -0 -0 -0 -0 -0 -0 -0 -1 -1 -1 -1 -1 -1 -1 -1 -1 -1 -1 -1 -1 -1
10 12 15 15 14 12 10 8 9 8 7 8 6 8 6 4 2 1 1 1 1 0 0 0 0 -0 0 1 1 1 0 0 0 0 0 -0 0 -0 -0 -1 -1 -1 -1 -1 -1 -1 -1 -1 -1
8 11 14 13 12 13 8 8 8 8 9 6 6 8 8 4 3 1 1 1 1 1 0 0 0 0 0 0 1 1 1 1 1 0 0 1 0 0 -0 -0 -0 -1 -1 -1 -1 -1 -0 -0 -0
10 14 13 12 12 10 8 8 6 6 8 7 6 7 4 3 2 3 3 2 2 1 1 0 0 1 1 0 -0 0 0 1 1 0 0 1 0 0 0 0 0 -0 -0 -1 -1 -1 -0 0 0
12 13 12 10 9 9 7 8 8 8 8 8 6 4 3 3 3 4 4 4 3 3 2 1 0 1 1 -0 -0 -0 -0 -0 -0 0 -0 0 1 1 -0 0 0 -0 -0 -0 -0 -1 0 0 1
13 13 10 9 8 8 8 8 7 9 9 8 6 5 4 4 4 4 4 3 3 2 2 1 1 0 0 0 0 0 0 1 1 1 1 1 1 1 1 1 1 1 -0 0 0 0 1 1 2
14 12 11 10 8 8 9 9 9 10 8 6 7 4 4 4 4 4 4 3 3 3 2 1 1 0 0 0 0 0 0 0 1 0 1 1 1 2 2 2 2 1 2 1 1 1 1 1 1
12 11 11 10 9 9 8 9 9 8 7 5 6 6 8 4 4 3 3 3 3 3 2 1 1 1 0 0 0 0 0 0 0 0 0 1 1 1 2 2 1 2 2 1 2 2 1 1 1
11 11 11 9 11 10 9 9 9 8 7 6 6 7 7 8 8 6 4 3 3 2 2 1 1 1 0 1 1 0 0 0 0 0 0 0 0 1 2 2 2 1 2 2 1 2 2 1 1
11 14 13 12 10 10 9 10 10 8 7 8 7 8 7 7 6 8 6 4 3 2 2 2 1 1 1 1 1 1 1 -0 0 0 0 0 1 1 1 2 2 2 1 2 2 3 3 2 2
13 13 17 13 11 9 9 13 10 7 8 8 8 8 8 7 7 6 7 7 5 2 2 2 1 1 1 1 1 1 1 1 1 1 0 0 1 1 2 2 2 2 2 2 2 2 2 2 2
15 18 16 15 11 10 10 12 9 7 7 8 8 8 8 8 7 7 6 6 6 4 2 2 1 1 1 1 1 1 1 1 1 1 1 1 0 0 2 2 2 2 2 2 2 2 2 2 2
18 17 16 16 15 11 11 11 9 8 7 7 8 9 9 8 8 6 6 6 6 6 2 2 1 1 1 1 1 2 1 1 1 1 1 1 0 1 1 2 2 2 3 3 3 3 4 2 1
13 14 15 14 12 12 12 11 10 8 8 8 8 9 9 8 6 6 6 6 6 7 6 2 2 2 1 2 2 2 3 3 2 2 1 1 1 1 2 2 2 1 2 3 3 2 2 2 1
12 13 13 12 11 12 11 11 9 8 8 7 8 9 8 9 8 7 6 7 6 5 5 2 2 2 1 1 1 2 2 3 2 2 2 1 2 1 1 2 2 1 2 3 3 2 2 3 2
13 14 13 13 11 11 11 13 11 8 8 8 8 8 8 8 8 7 6 7 5 5 4 2 2 2 1 2 3 4 4 4 4 4 3 2 2 2 1 1 2 1 1 2 2 2 2 3 2
15 11 11 11 12 17 12 18 13 10 9 9 9 9 9 8 7 7 7 6 5 5 4 6 6 5 5 4 4 4 3 4 4 3 3 3 2 2 2 2 2 1 2 2 2 2 1 2 3
13 10 11 11 12 15 13 17 14 11 11 9 10 9 10 9 8 5 5 5 5 6 6 6 6 6 5 4 4 4 4 4 4 5 4 3 2 2 1 1 1 1 1 2 2 2 2 2 2
9 10 11 10 12 18 14 16 16 14 11 10 10 9 9 6 5 5 5 5 6 6 6 6 6 6 5 5 4 3 3 3 4 5 5 4 3 2 1 1 2 1 2 3 2 3 2 2 2
10 13 18 19 19 20 13 16 14 11 11 10 9 9 7 5 6 6 6 6 7 7 7 6 6 7 6 7 7 6 5 4 3 3 3 4 4 4 2 2 2 2 2 2 2 2 2 2 1
12 12 17 22 21 19 14 18 14 10 8 9 8 7 6 6 6 7 7 7 7 7 7 7 7 8 7 8 8 8 6 6 4 2 2 3 2 2 2 1 1 2 2 2 2 2 2 2 1
11 14 11 15 15 18 15 14 11 9 9 8 8 7 7 7 8 7 7 7 8 8 8 8 8 8 8 8 8 9 8 8 6 4 1 2 2 2 1 1 1 2 3 2 2 3 3 3 1
11 9 16 15 21 22 19 17 17 14 12 10 9 9 9 8 8 8 9 8 8 9 9 9 9 10 9 9 9 9 9 8 8 5 3 1 2 2 1 1 1 1 2 3 3 3 3 3 1
12 13 14 14 16 21 22 19 12 12 11 10 10 9 10 10 10 10 10 9 9 9 9 10 10 10 10 10 10 10 10 9 8 7 5 1 1 1 2 1 2 2 3 3 3 3 3 2 2
10 13 13 17 19 16 17 18 10 10 9 9 10 10 9 10 10 10 11 11 11 10 10 11 11 11 10 10 10 11 10 10 7 6 3 1 1 2 1 1 2 3 2 3 3 3 3 2 3